Simultaneous Nadir Overpasses (SNOs) Predictions

Prediction of SNOs between LANDSAT-8 and METOP-B Satellite Orbit:

Table of predicted SNOs for the next 14.0 days since TLE Epoch: 3/7/2020
Index Date (LANDSAT-8) Time (LANDSAT-8) Lat,Lon (LANDSAT-8) SZA (LANDSAT-8 ) Date (METOP-B) Time (METOP-B) Lat,Lon (METOP-B) SZA (METOP-B ) Distance(km) Time Diff (sec)
1 03/07/2020 20:30:04 81.10, -88.36 87.63 03/07/2020 20:29:31 81.10, -88.29 87.63 1.23 33
2 03/07/2020 21:19:30 -81.12, 79.55 92.34 03/07/2020 21:20:11 -81.11, 79.45 92.34 1.83 41
3 03/10/2020 16:04:18 81.10, -21.91 86.55 03/10/2020 16:03:54 81.10, -21.79 86.56 2.02 24
4 03/10/2020 16:53:44 -81.12, 146.03 93.42 03/10/2020 16:54:34 -81.11, 145.95 93.41 1.50 50
5 03/13/2020 11:38:32 81.10, 44.51 85.47 03/13/2020 11:38:17 81.10, 44.69 85.48 3.09 15
6 03/13/2020 12:27:58 -81.12,-147.51 94.50 03/13/2020 12:28:57 -81.12,-147.56 94.49 0.93 59
7 03/16/2020 07:12:45 81.10, 110.91 84.37 03/16/2020 07:12:40 81.09, 110.79 84.36 2.21 5
8 03/16/2020 08:02:11 -81.12, -81.08 95.59 03/16/2020 08:03:19 -81.12, -81.09 95.57 0.10 68
9 03/19/2020 01:57:34 -81.07, 9.31 96.77 03/19/2020 01:56:24 -81.07, 9.37 96.79 1.18 70




NCC Satellite Simultaneous Nadir Overpasses (SNOs) Prediction Service
